Powrót do katalogu

NOAA 16 DEB

AktywnySSO
NORAD 41667·DEBRIS·🇺🇸 United States

Wystrzelony Sep 21, 2000 z Vandenberg Space Force Base

Loading…

Następne Przeloty (najbliższe 24 godziny)

TLE

ŚwieżeSource: Space-Track

Epoka: Sep 14, 2026, 02:56 UTC

1 41667U 00055PG  26257.12227826  .00000865  00000-0  38079-3 0  9995
2 41667  98.7791   2.5580 0028211 275.9039  83.8925 14.25858176540793

Śledź NOAA 16 DEB w czasie rzeczywistym z AllMySat

Download on the App Store